Weather History for KBFD - February, 2013

Change the Weather History Date:

Thursday, February 28, 2013

  Actual Average Record
Temperature  
Mean Temperature 31 °F 26 °F  
Max Temperature 32 °F 36 °F 53 °F (1983)
Min Temperature 30 °F 17 °F -19 °F (2014)
Degree Days  
Heating Degree Days 34 33  
Month to date heating degree days 1002  
Since 1 July heating degree days 5570  
Cooling Degree Days 0 0  
Month to date cooling degree days 0  
Year to date cooling degree days 0  
Moisture  
Dew Point 26 °F    
Average Humidity 83    
Maximum Humidity 88    
Minimum Humidity 79    
Precipitation  
Precipitation 0.12 in 0.09 in 1.36 in (2011)
Month to date precipitation 2.35  
Year to date precipitation 5.64  
Sea Level Pressure  
Sea Level Pressure 29.56 in    
Wind  
Wind Speed 6 mph (West)    
Max Wind Speed 14 mph    
Max Gust Speed 20 mph    
Visibility 3 miles    
Events Snow    
T = Trace of Precipitation, MM = Missing Value Source: NWS Daily Summary

Daily Weather History Graph

Daily Weather History Graph

Search for Another Location

Airport or City:

Trip Planner

Search our weather history database for the weather conditions in past years. The results will help you decide how hot, cold, wet, or windy it might be!

Date:

Astronomy

Feb. 28, 2013 Rise Set
Actual Time 6:50 AM EST 6:04 PM EST
Civil Twilight 6:22 AM EST 6:31 PM EST
Nautical Twilight 5:50 AM EST 7:04 PM EST
Astronomical Twilight 5:18 AM EST 7:36 PM EST
Moon 9:33 PM EST (2/28) 7:55 AM EST (2/28)
Length of Visible Light 12h 09m
Length of Day
11h 13m
Waning Gibbous, 91% of the Moon is Illuminated
Feb 28
Waning Gibbous
Mar 4
Last Quarter
Mar 11
New
Mar 19
First Quarter
Mar 27
Full

Hourly Weather History & Observations

Time (EST) Temp. Windchill Dew Point Humidity Pressure Visibility Wind Dir Wind Speed Gust Speed Precip Events Conditions
12:16 AM 32.0 °F 26.4 °F 28.9 °F 88% 29.54 in 2.5 mi West 5.8 mph - 0.00 in Snow Light Snow
12:19 AM 32.0 °F 27.5 °F 28.9 °F 88% 29.54 in 1.8 mi West 4.6 mph - 0.00 in Snow Light Snow
12:44 AM 32.0 °F 25.6 °F 28.0 °F 85% 29.53 in 2.0 mi WSW 6.9 mph - 0.01 in Snow Light Snow
12:53 AM 32.0 °F 27.5 °F 28.0 °F 85% 29.58 in 2.0 mi WSW 4.6 mph - 0.01 in Snow Light Snow
1:00 AM 32.0 °F 27.5 °F 28.0 °F 85% 29.53 in 2.0 mi Variable 4.6 mph - 0.00 in Snow Light Snow
1:39 AM 32.0 °F 27.5 °F 28.0 °F 85% 29.53 in 3.0 mi SW 4.6 mph - 0.00 in Snow Light Snow
1:53 AM 30.9 °F 23.5 °F 27.0 °F 85% 29.57 in 5.0 mi WSW 8.1 mph - 0.00 in   Overcast
2:50 AM 30.2 °F 23.4 °F 26.6 °F 86% 29.52 in 5.0 mi Variable 6.9 mph - 0.00 in Snow Light Snow
2:53 AM 30.9 °F 24.3 °F 27.0 °F 85% 29.57 in 6.0 mi SW 6.9 mph - 0.00 in Snow Light Snow
3:13 AM 30.9 °F 24.3 °F 27.0 °F 85% 29.51 in 7.0 mi WSW 6.9 mph - 0.00 in   Overcast
3:53 AM 30.9 °F 24.3 °F 26.1 °F 82% 29.55 in 9.0 mi WSW 6.9 mph - 0.00 in   Overcast
4:53 AM 30.0 °F 24.1 °F 26.1 °F 85% 29.56 in 2.0 mi WSW 5.8 mph - 0.01 in Snow Light Snow
4:59 AM 30.0 °F 25.2 °F 26.1 °F 85% 29.51 in 1.2 mi SW 4.6 mph - 0.00 in Snow Light Snow
5:53 AM 30.0 °F 25.2 °F 26.1 °F 85% 29.56 in 1.8 mi West 4.6 mph - 0.03 in Snow Light Snow
5:55 AM 30.0 °F 25.2 °F 26.1 °F 85% 29.51 in 2.0 mi West 4.6 mph - 0.00 in Snow Light Snow
6:00 AM 30.0 °F 25.2 °F 25.0 °F 82% 29.51 in 3.0 mi West 4.6 mph - 0.00 in Snow Light Snow
6:17 AM 30.0 °F 25.2 °F 26.1 °F 85% 29.51 in 2.5 mi SW 4.6 mph - 0.00 in Snow Light Snow
6:30 AM 30.0 °F 24.1 °F 26.1 °F 85% 29.51 in 3.0 mi WSW 5.8 mph - 0.00 in Snow Light Snow
6:40 AM 30.0 °F 26.5 °F 26.1 °F 85% 29.51 in 3.0 mi SW 3.5 mph - 0.01 in Snow Light Snow
6:53 AM 30.0 °F 26.5 °F 26.1 °F 85% 29.56 in 6.0 mi Variable 3.5 mph - 0.01 in Snow Light Snow
7:35 AM 30.0 °F 24.1 °F 26.1 °F 85% 29.52 in 6.0 mi WSW 5.8 mph - 0.00 in Snow Light Snow
7:53 AM 30.0 °F 25.2 °F 26.1 °F 85% 29.56 in 3.0 mi SW 4.6 mph - 0.00 in Snow Light Snow
8:16 AM 30.0 °F 24.1 °F 26.1 °F 85% 29.52 in 1.8 mi Variable 5.8 mph - 0.00 in Snow Light Snow
8:42 AM 30.0 °F 25.2 °F 26.1 °F 85% 29.52 in 2.5 mi Variable 4.6 mph - 0.00 in Snow Light Snow
8:53 AM 30.0 °F 23.2 °F 26.1 °F 85% 29.57 in 2.5 mi Variable 6.9 mph - 0.00 in Snow Light Snow
9:08 AM 30.0 °F 23.2 °F 26.1 °F 85% 29.52 in 1.2 mi SSW 6.9 mph - 0.01 in Snow Light Snow
9:17 AM 30.0 °F 21.1 °F 26.1 °F 85% 29.52 in 1.5 mi WSW 10.4 mph 17.3 mph 0.01 in Snow Light Snow
9:20 AM 30.0 °F 25.2 °F 25.0 °F 82% 29.52 in 2.0 mi West 4.6 mph 17.3 mph 0.01 in Snow Light Snow
9:29 AM 30.0 °F 26.5 °F 25.0 °F 82% 29.52 in 3.0 mi Variable 3.5 mph - 0.01 in Snow Light Snow
9:39 AM 30.0 °F 24.1 °F 25.0 °F 82% 29.52 in 3.0 mi Variable 5.8 mph - 0.01 in Snow Light Snow
9:53 AM 30.0 °F 23.2 °F 25.0 °F 82% 29.57 in 3.0 mi West 6.9 mph - 0.01 in Snow Light Snow
10:08 AM 30.9 °F 25.2 °F 25.0 °F 79% 29.53 in 2.5 mi Variable 5.8 mph - 0.00 in Snow Light Snow
10:29 AM 30.0 °F 25.2 °F 25.0 °F 82% 29.53 in 0.8 mi WSW 4.6 mph - 0.00 in Snow Light Snow
10:43 AM 30.0 °F 25.2 °F 26.1 °F 85% 29.53 in 0.8 mi WSW 4.6 mph - 0.00 in Snow Light Snow
10:51 AM 30.2 °F 24.3 °F 26.6 °F 86% 29.53 in 1.0 mi WSW 5.8 mph - 0.01 in Snow Light Snow
10:53 AM 30.9 °F 26.2 °F 26.1 °F 82% 29.58 in 1.0 mi West 4.6 mph - 0.01 in Snow Light Snow
11:04 AM 30.9 °F 25.2 °F 26.1 °F 82% 29.53 in 1.2 mi West 5.8 mph - 0.00 in Snow Light Snow
11:07 AM 30.9 °F 24.3 °F 26.1 °F 82% 29.53 in 1.2 mi West 6.9 mph - 0.00 in Snow Light Snow
11:40 AM 30.9 °F 24.3 °F 26.1 °F 82% 29.53 in 1.2 mi Variable 6.9 mph - 0.00 in Snow Light Snow
11:48 AM 30.2 °F 23.4 °F 26.6 °F 86% 29.54 in 1.0 mi SW 6.9 mph - 0.00 in Snow Light Snow
11:53 AM 30.9 °F 24.3 °F 26.1 °F 82% 29.58 in 1.2 mi Variable 6.9 mph - 0.00 in Snow Light Snow
11:57 AM 30.9 °F 25.2 °F 26.1 °F 82% 29.54 in 0.8 mi WSW 5.8 mph - 0.00 in Snow Light Snow
12:31 PM 30.9 °F 24.3 °F 26.1 °F 82% 29.53 in 0.8 mi Variable 6.9 mph - 0.01 in Snow Light Snow
12:40 PM 30.9 °F 25.2 °F 27.0 °F 85% 29.53 in 1.0 mi SW 5.8 mph - 0.01 in Snow Light Snow
12:53 PM 32.0 °F 26.4 °F 26.1 °F 79% 29.57 in 1.0 mi Variable 5.8 mph - 0.02 in Snow Light Snow
1:04 PM 32.0 °F 24.2 °F 26.1 °F 79% 29.53 in 1.5 mi SW 9.2 mph - 0.00 in Snow Light Snow
1:29 PM 32.0 °F 26.4 °F 27.0 °F 82% 29.53 in 0.8 mi West 5.8 mph - 0.00 in Snow Light Snow
1:48 PM 30.2 °F 24.3 °F 26.6 °F 86% 29.53 in 1.0 mi West 5.8 mph - 0.00 in Snow Light Snow
1:49 PM 30.9 °F 24.3 °F 26.1 °F 82% 29.58 in 1.0 mi West 6.9 mph - 0.00 in Snow Light Snow
1:56 PM 30.9 °F 27.5 °F 26.1 °F 82% 29.53 in 1.2 mi Variable 3.5 mph - 0.00 in Snow Light Snow
2:09 PM 32.0 °F 26.4 °F 27.0 °F 82% 29.53 in 2.5 mi WNW 5.8 mph - 0.00 in Snow Light Snow
2:21 PM 32.0 °F 26.4 °F 26.1 °F 79% 29.53 in 1.8 mi West 5.8 mph - 0.00 in Snow Light Snow
2:53 PM 32.0 °F 26.4 °F 27.0 °F 82% 29.59 in 1.0 mi West 5.8 mph - 0.01 in Snow Light Snow
3:04 PM 32.0 °F 25.6 °F 27.0 °F 82% 29.54 in 1.5 mi West 6.9 mph - 0.00 in Snow Light Snow
3:15 PM 32.0 °F 24.2 °F 27.0 °F 82% 29.54 in 3.0 mi WNW 9.2 mph - 0.00 in Snow Light Snow
3:25 PM 32.0 °F 24.8 °F 27.0 °F 82% 29.54 in 3.0 mi WNW 8.1 mph - 0.00 in Snow Light Snow
3:32 PM 32.0 °F 26.4 °F 27.0 °F 82% 29.54 in 2.0 mi West 5.8 mph - 0.00 in Snow Light Snow
3:50 PM 32.0 °F 24.2 °F 26.6 °F 80% 29.54 in 1.8 mi WNW 9.2 mph - 0.00 in Snow Light Snow
3:53 PM 32.0 °F 25.6 °F 26.1 °F 79% 29.59 in 2.0 mi West 6.9 mph - 0.00 in Snow Light Snow
4:01 PM 32.0 °F 24.8 °F 26.1 °F 79% 29.55 in 4.0 mi West 8.1 mph - 0.00 in Snow Light Snow
4:10 PM 32.0 °F 23.6 °F 26.1 °F 79% 29.55 in 3.0 mi West 10.4 mph - 0.00 in Snow Light Snow
4:28 PM 32.0 °F 24.2 °F 26.1 °F 79% 29.55 in 5.0 mi WNW 9.2 mph - 0.01 in Snow Light Snow
4:53 PM 32.0 °F 24.2 °F 26.1 °F 79% 29.61 in 10.0 mi West 9.2 mph - 0.01 in   Overcast
5:53 PM 30.9 °F 21.7 °F 26.1 °F 82% 29.64 in 10.0 mi WNW 11.5 mph - 0.00 in   Overcast
6:14 PM 30.9 °F 20.7 °F 26.1 °F 82% 29.60 in 10.0 mi NW 13.8 mph 19.6 mph N/A   Overcast
6:53 PM 30.9 °F 22.2 °F 26.1 °F 82% 29.67 in 6.0 mi NW 10.4 mph - 0.00 in   Haze
8:57 PM 30.0 °F 21.7 °F 26.1 °F 85% 29.65 in 1.8 mi NW 9.2 mph - 0.00 in Snow Light Snow
9:08 PM 30.0 °F 20.0 °F 26.1 °F 85% 29.65 in 3.0 mi NNW 12.7 mph - 0.00 in Snow Light Snow
9:53 PM 30.0 °F 21.1 °F 26.1 °F 85% 29.72 in 9.0 mi NNW 10.4 mph - 0.00 in   Overcast
10:53 PM 30.0 °F 24.1 °F 26.1 °F 85% 29.72 in 4.0 mi WNW 5.8 mph - N/A   Overcast
11:30 PM 30.0 °F 22.4 °F 26.1 °F 85% 29.67 in 2.0 mi WNW 8.1 mph - 0.00 in Snow Light Snow
11:45 PM 30.0 °F 21.1 °F 26.1 °F 85% 29.67 in 5.0 mi NW 10.4 mph - 0.00 in   Overcast
11:53 PM 30.0 °F 20.0 °F 25.0 °F 82% 29.72 in 7.0 mi NW 12.7 mph - 0.00 in   Overcast